Regional Weather Roundup
Issued by NWS Cleveland, OH

Home | Current Version | Previous Version | Graphics & Text | Print | Product List | Glossary On
Versions: 1 2 3 4 5 6 7 8 9 10 11 12 13 14 15 16 17 18 19 20 21 22 23 24 25 26 27 28 29 30 31 32 33 34 35 36 37 38 39 40 41 42 43 44 45 46 47 48 49 50
000
ASUS41 KCLE 211900
RWRCLE
OHIO REGIONAL WEATHER ROUNDUP
NATIONAL WEATHER SERVICE WILMINGTON, OH
300 PM EDT THU SEP 21 2017

NOTE: "FAIR" INDICATES FEW OR NO CLOUDS BELOW 12,000 FEET WITH NO
SIGNIFICANT WEATHER AND/OR OBSTRUCTIONS TO VISIBILITY.

OHZ001>008-015>018-024>027-034-035-043-044-212000-
   NORTHWEST OHIO

CITY           SKY/WX    TMP DP  RH WIND       PRES   REMARKS
DEFIANCE       FAIR      89  69  51 S8        30.05F HX  93
FINDLAY        FAIR      89  69  51 SE3       30.06F HX  93
TOLEDO EXPRESS FAIR      91  72  53 CALM      30.05F HX  98
TOLEDO EXEC    PTSUNNY   91  71  51 CALM      30.06F HX  97
LIMA           FAIR      90  68  48 CALM      30.07F HX  94
$$

OHZ009>014-019>023-028>033-038-089-212000-
   NORTHEAST OHIO

CITY           SKY/WX    TMP DP  RH WIND       PRES   REMARKS
CLE-HOPKINS    FAIR      91  64  40 N12       30.09F HX  92
CLE-LAKEFRONT  FAIR      79  69  71 NE9       30.08F
CUY CO. ARPT   MOSUNNY   86  66  51 N12       30.10F
LORAIN-ELYRIA  FAIR      87  65  47 NE6       30.08F
ASHTABULA      FAIR      85  64  49 N8        30.10F
AKRON-CANTON   PTSUNNY   88  60  38 CALM      30.10F
WOOSTER        NOT AVBL
MANSFIELD      FAIR      87  66  49 E5        30.11F
YOUNGSTOWN     PTSUNNY   84  63  49 CALM      30.10F
$$

OHZ042-051>053-060>062-070>072-077>081-212000-
  SOUTHWEST OHIO

CITY           SKY/WX    TMP DP  RH WIND       PRES   REMARKS
CINC-COVINGTON FAIR      87  71  58 CALM      30.08F HX  93
CINC-LUNKEN    FAIR      90  68  48 VRB3      30.06F HX  94
HAMILTON       FAIR      90  71  53 CALM      30.07F HX  96
DAYTON         NOT AVBL
WRIGHT-PAT AFB NOT AVBL
DAYTON GENERAL FAIR      86  69  56 SW6       30.07F HX  90
WILMINGTON     FAIR      85  70  60 E3        30.08F
$$

OHZ036-037-039>041-045>050-054>059-063>069-073>076-082>088-212000-
  CENTRAL AND SOUTHEAST OHIO

CITY           SKY/WX    TMP DP  RH WIND       PRES   REMARKS
COLUMBUS       FAIR      87  66  49 VRB3      30.07F
OSU AIRPORT    FAIR      86  68  54 CALM      30.07F
BOLTON FIELD   SUNNY     86  68  54 CALM      30.09F
RICKENBACK AFB NOT AVBL
NEWARK         FAIR      85  65  51 VRB5      30.08F
MARION         PTSUNNY   86  65  49 MISG      30.08F
LANCASTER      FAIR      88  65  46 CALM      30.09F HX  90
ZANESVILLE     FAIR      85  63  47 VRB3      30.09F
NEW PHILLY     PTSUNNY   88  62  41 S3        30.10S
$$



USA.gov is the U.S. government's official web portal to all federal, state and local government web resources and services.